INTELSAT II F-2

operational
NORAD ID: 2639 Int'l Des: 1967-001 Owner: INTEL Country: I-INT
HEOCIRCULAR

About INTELSAT II F-2

Description loading...

Live Position

Loading 3D Globe...

Upcoming Passes

Altitude History

Altitude vs Time

uPlot chart will show altitude changes over time

Two-Line Element Set

1 02639U 67001A 25347.17197730 -.00000118 00000-0 00000-0 0 9991
2 02639 2.7754 79.2305 0009435 191.8487 217.2805 1.00229816117386
Epoch: Dec 13, 2025 • Age: 28 hours

Current Status

Altitude 35788.9 km
Velocity 3.07 km/s
Sub-Earth Point 2.52°N, 15.92°W
Type communications

Large Constellations

Loading constellations...